Regional Weather Roundup
Issued by NWS State College, PA

Home | Current Version | Previous Version | Graphics & Text | Print | Product List | Glossary Off
Versions: 1 2 3 4 5 6 7 8 9 10 11 12 13 14 15 16 17 18 19 20 21 22 23 24 25 26 27 28 29 30 31 32 33 34 35 36 37 38 39 40 41 42 43 44 45 46 47 48 49 50

000
ASUS41 KCTP 251303
RWRCTP

REGIONAL WEATHER ROUNDUP
NATIONAL WEATHER SERVICE STATE COLLEGE PA
900 AM EDT MON JUL 25 2016

Note: "fair" indicates few or no clouds below 12,000 feet with no
significant weather and/or obstructions to visibility.

* = STATION THAT DOES NOT REPORT PRECIPITATION /E.G. RAIN...SNOW...ETC/
    THUNDER OR FOG.

PAZ002>004-007>009-013>016-020>023-029>032-251400-
WESTERN PENNSYLVANIA

CITY           SKY/WX    TMP DP  RH WIND       PRES   REMARKS
ERIE           CLOUDY    81  73  76 SW10      29.92S
MEADVILLE      MOSUNNY   75  70  84 SW3       29.98R
FRANKLIN*      MOSUNNY   75  70  83 SW5       30.01S
NEW CASTLE     FAIR      78  74  87 SW3       29.98R
BEAVER COUNTY  SUNNY     79  73  83 W6        30.00R
BUTLER*        SUNNY     79  73  83 W5        30.02R
PITTSBURGH INT MOSUNNY   79  72  79 SW8       29.99S
PITTSBURGH     SUNNY     78  72  81 S8        29.99S HAZE
INDIANA*       PTSUNNY   75  73  94 SW7       30.04R
LATROBE        PTSUNNY   77  75  94 SW10      30.02R
WASHINGTON CO* SUNNY     81  73  78 W6        30.02S
$$

PAZ004>006-010>012-017>019-024>028-033>037-041-042-045-046-049>053-251400-
CENTRAL PENNSYLVANIA

CITY           SKY/WX    TMP DP  RH WIND       PRES   REMARKS
BRADFORD       MOSUNNY   73  68  84 SW8       30.01F
DUBOIS         SUNNY     75  70  84 SW7       30.01S
CLEARFIELD     SUNNY     73  69  87 VRB6      30.01S
JOHNSTOWN      CLOUDY    76  69  79 SW7       30.06S
ALTOONA        CLOUDY    76  70  82 SW5       30.02S
STATE COLLEGE  PTSUNNY   75  72  88 CALM      29.99S
WILLIAMSPORT   MOSUNNY   77  69  76 CALM      29.95S
SELINSGROVE    SUNNY     79  74  84 CALM      29.96S
FT INDIANTOWN  SUNNY     80  71  74 SW5       29.95F
CAPITAL CITY   SUNNY     82  74  76 W6        29.95S
HARRISBURG     SUNNY     81  76  84 NW3       29.95S
YORK           SUNNY     81  74  79 CALM      29.96F
$$

PAZ038>040-043-044-047-048-054-055-060>062-067>071-251400-
EASTERN PENNSYLVANIA

CITY           SKY/WX    TMP DP  RH WIND       PRES   REMARKS
SCRANTON       SUNNY     78  69  73 W7        29.96F
MOUNT POCONO   SUNNY     75  66  73 W9        30.00F
ALLENTOWN      SUNNY     82  69  64 SW5       29.94F
QUAKERTOWN*    SUNNY     81  72  74 CALM      29.96S
READING        SUNNY     84  69  60 W3        29.93F
LANCASTER      SUNNY     79  72  79 W6        29.95F
COATESVILLE    SUNNY     81  73  78 CALM      29.99R
POTTSTOWN      SUNNY     78  73  84 SW5       29.97S
BLUE BELL      CLOUDY    77  73  88 CALM      29.95S
DOYLESTOWN     CLOUDY    76  73  91 S3        29.95S
WILLOW GROVE   NOT AVBL
NORTH PHILA    CLOUDY    79  75  87 SE3       29.97R
PHILADELPHIA   CLOUDY    79  73  82 SE5       29.96R
$$




USA.gov is the U.S. government's official web portal to all federal, state and local government web resources and services.